This demonstration page uses our WeatherBlox Daily Observations layout. Learn more.

39.08367, -84.50855

Hourly Observations for January 25, 2019

Temp ( °F °C ) Dew Point ( °F °C ) Humidity (%) Winds ( mph kmh ) Pressure ( in mb ) Visibility ( mi km ) Precip ( " mm )
12:53 am 00:53 Mostly Cloudy 26 -3.3 16 -8.9 66 66 W 16 26 30.09 1019 10 16.09344 0 0
1:53 am 01:53 Mostly Clear 23 -5 13 -10.6 65 65 W 15 24 30.12 1020 10 16.09344 0 0
2:24 am 02:24 Cloudy 23 -5 13 -10.6 65 65 W 16 26 30.18 1022 10 16.09344 0 0
2:46 am 02:46 Partly Cloudy 21 -6.1 11 -11.7 65 65 W 15 24 30.18 1022 10 16.09344 0 0
2:53 am 02:53 Mostly Clear 21 -6.1 11 -11.7 65 65 WNW 14 22 30.15 1021 10 16.09344 0 0
3:42 am 03:42 Mostly Cloudy 20 -6.7 9 -12.8 62 62 W 18 30 30.21 1023 10 16.09344 0 0
3:53 am 03:53 Cloudy 20 -6.7 10 -12.2 65 65 W 15 24 30.18 1022 10 16.09344 0 0
4:43 am 04:43 Mostly Clear 18 -7.8 6 -14.4 59 59 W 15 24 30.24 1024 10 16.09344 0 0
4:53 am 04:53 Mostly Clear 18 -7.8 5 -15 57 57 W 17 28 30.21 1023 10 16.09344 0 0
5:53 am 05:53 Clear 16 -8.9 5 -15 62 62 WNW 12 19 30.24 1024 10 16.09344 0 0
6:53 am 06:53 Clear 14 -10 1 -17.2 56 56 W 14 22 30.27 1025 10 16.09344 0 0
7:53 am 07:53 Sunny 13 -10.6 2 -16.7 61 61 W 15 24 30.3 1026 10 16.09344 0 0
8:53 am 08:53 Sunny 14 -10 3 -16.1 61 61 W 10 17 30.33 1027 10 16.09344 0 0
9:53 am 09:53 Sunny 15 -9.4 1 -17.2 53 53 W 13 20 30.36 1028 10 16.09344 0 0
10:53 am 10:53 Sunny 16 -8.9 3 -16.1 56 56 SW 9 15 30.36 1028 10 16.09344 0 0
11:53 am 11:53 Sunny 18 -7.8 3 -16.1 52 52 SW 8 13 30.36 1028 10 16.09344 0 0
12:53 pm 12:53 Sunny 21 -6.1 5 -15 50 50 WSW 12 19 30.33 1027 10 16.09344 0 0
1:53 pm 13:53 Sunny 22 -5.6 3 -16.1 44 44 SW 7 11 30.3 1026 10 16.09344 0 0
2:53 pm 14:53 Sunny 24 -4.4 3 -16.1 40 40 SSW 12 19 30.27 1025 10 16.09344 0 0
3:53 pm 15:53 Sunny 24 -4.4 6 -14.4 46 46 SW 12 19 30.27 1025 10 16.09344 0 0
4:53 pm 16:53 Sunny 24 -4.4 4 -15.6 42 42 SSW 13 20 30.27 1025 10 16.09344 0 0
5:53 pm 17:53 Clear 22 -5.6 4 -15.6 46 46 SSW 9 15 30.27 1025 10 16.09344 0 0
6:53 pm 18:53 Clear 22 -5.6 7 -13.9 52 52 SSW 8 13 30.24 1024 10 16.09344 0 0
7:53 pm 19:53 Clear 22 -5.6 9 -12.8 57 57 SSW 7 11 30.24 1024 10 16.09344 0 0
8:53 pm 20:53 Clear 21 -6.1 9 -12.8 59 59 SSW 6 9 30.21 1023 10 16.09344 0 0
9:53 pm 21:53 Cloudy 23 -5 9 -12.8 55 55 S 6 9 30.21 1023 10 16.09344 0 0
10:53 pm 22:53 Cloudy 24 -4.4 9 -12.8 52 52 WSW 9 15 30.21 1023 10 16.09344 0 0
11:53 pm 23:53 Mostly Cloudy 24 -4.4 10 -12.2 55 55 SW 7 11 30.21 1023 10 16.09344 0 0

Powered by AerisWeather